TimeEST,TemperatureF,Dew PointF,Humidity,Sea Level PressureIn,VisibilityMPH,Wind Direction,Wind SpeedMPH,Gust SpeedMPH,PrecipitationIn,Events,Conditions,WindDirDegrees,DateUTC
12:56 AM,39.0,36.0,89,29.94,7.0,NE,5.8,-,0.08,Rain,Rain,50,2012-12-29 05:56:00
1:56 AM,37.9,37.0,97,29.91,5.0,East,8.1,-,0.15,Rain,Heavy Rain,80,2012-12-29 06:56:00
2:56 AM,37.9,37.0,97,29.83,5.0,East,11.5,-,0.13,Rain,Rain,80,2012-12-29 07:56:00
3:39 AM,37.4,37.4,100,29.83,7.0,NNE,4.6,-,0.06,Rain,Light Rain,20,2012-12-29 08:39:00
3:47 AM,37.4,37.4,100,29.82,8.0,NE,5.8,-,0.06,Rain,Light Rain,40,2012-12-29 08:47:00
3:56 AM,37.9,37.0,97,29.81,9.0,NE,8.1,-,0.06,,Overcast,40,2012-12-29 08:56:00
4:56 AM,37.9,37.0,97,29.79,8.0,NNE,3.5,-,N/A,,Overcast,20,2012-12-29 09:56:00
5:56 AM,37.9,37.9,100,29.80,4.0,NNW,5.8,-,0.01,Snow,Light Snow,340,2012-12-29 10:56:00
6:40 AM,37.4,37.4,100,29.81,3.0,NNW,4.6,-,0.00,,Overcast,340,2012-12-29 11:40:00
6:56 AM,37.9,37.9,100,29.82,4.0,Calm,Calm,-,0.00,,Overcast,0,2012-12-29 11:56:00
7:24 AM,37.4,37.4,100,29.82,7.0,West,3.5,-,N/A,,Overcast,280,2012-12-29 12:24:00
7:33 AM,37.4,37.4,100,29.82,7.0,Calm,Calm,-,N/A,,Overcast,0,2012-12-29 12:33:00
7:42 AM,39.2,37.4,93,29.82,7.0,Calm,Calm,-,N/A,,Overcast,0,2012-12-29 12:42:00
7:52 AM,39.2,37.4,93,29.82,5.0,West,3.5,-,N/A,,Overcast,280,2012-12-29 12:52:00
8:12 AM,39.2,39.2,100,29.83,5.0,Calm,Calm,-,N/A,,Overcast,0,2012-12-29 13:12:00
8:56 AM,39.9,39.0,97,29.84,7.0,SW,4.6,-,N/A,,Overcast,220,2012-12-29 13:56:00
9:15 AM,39.2,39.2,100,29.83,5.0,SW,5.8,-,N/A,,Overcast,230,2012-12-29 14:15:00
9:49 AM,42.8,41.0,93,29.83,9.0,WSW,12.7,-,N/A,,Overcast,240,2012-12-29 14:49:00
9:56 AM,43.0,41.0,93,29.84,10.0,WSW,10.4,-,N/A,,Overcast,240,2012-12-29 14:56:00
10:08 AM,42.8,39.2,87,29.84,10.0,WSW,12.7,-,N/A,,Mostly Cloudy,250,2012-12-29 15:08:00
10:32 AM,44.6,41.0,87,29.84,10.0,WSW,16.1,-,N/A,,Partly Cloudy,250,2012-12-29 15:32:00
10:56 AM,46.0,41.0,83,29.84,10.0,WSW,15.0,24.2,N/A,,Clear,240,2012-12-29 15:56:00
11:56 AM,48.9,39.9,71,29.83,10.0,WSW,17.3,23.0,N/A,,Partly Cloudy,250,2012-12-29 16:56:00
12:56 PM,51.1,39.0,63,29.80,10.0,West,20.7,29.9,N/A,,Partly Cloudy,260,2012-12-29 17:56:00
1:56 PM,51.1,36.0,56,29.80,10.0,West,18.4,27.6,N/A,,Scattered Clouds,260,2012-12-29 18:56:00
2:56 PM,50.0,33.1,52,29.83,10.0,WSW,24.2,31.1,N/A,,Partly Cloudy,250,2012-12-29 19:56:00
3:56 PM,48.0,32.0,54,29.86,10.0,West,19.6,29.9,N/A,,Overcast,270,2012-12-29 20:56:00
4:56 PM,44.1,30.9,60,29.90,10.0,West,13.8,27.6,N/A,,Scattered Clouds,280,2012-12-29 21:56:00
5:56 PM,41.0,28.9,62,29.94,10.0,West,19.6,26.5,N/A,,Clear,280,2012-12-29 22:56:00
6:56 PM,41.0,28.9,62,29.97,10.0,West,15.0,29.9,N/A,,Overcast,280,2012-12-29 23:56:00
7:56 PM,39.9,27.0,60,30.01,10.0,West,13.8,-,N/A,,Scattered Clouds,280,2012-12-30 00:56:00
8:56 PM,37.9,26.1,62,30.03,10.0,WNW,11.5,-,N/A,,Clear,290,2012-12-30 01:56:00
9:56 PM,37.9,25.0,60,30.06,9.0,WNW,15.0,-,0.00,Snow,Light Snow,290,2012-12-30 02:56:00
10:56 PM,37.0,21.9,54,30.09,10.0,WNW,9.2,-,0.00,,Clear,290,2012-12-30 03:56:00
11:56 PM,35.1,24.1,64,30.11,10.0,West,9.2,-,0.00,,Clear,270,2012-12-30 04:56:00